Location: Unspecified
(0.0000°N, 0.0000°E)
Time: 20:11:54
(UTC+00:00)

AO-7 - Visible Passes

Search period start: 26 September 2021 00:00
Search period end: 06 October 2021 00:00
Orbit: 1440 x 1458 km, 101.9° (Epoch: 26 September)

Date Brightness Start Highest point End Pass type
(mag) Time Alt. Az. Time Alt. Az. Time Alt. Az.
26 Sep ? 03:22:06 10° NNE 03:30:13 61° ESE 03:38:20 10° S visible
26 Sep ? 05:17:42 10° NW 05:22:32 17° WNW 05:27:24 10° WSW visible
27 Sep ? 02:25:09 10° ENE 02:30:36 19° ESE 02:36:01 10° SSE visible
27 Sep ? 04:14:56 10° N 04:22:55 55° WNW 04:30:57 10° SSW visible
28 Sep ? 03:15:14 10° NNE 03:23:13 53° ESE 03:31:12 10° S visible
28 Sep ? 05:10:01 10° NNW 05:15:32 20° WNW 05:21:06 10° WSW visible
29 Sep ? 02:18:54 10° ENE 02:23:36 16° ESE 02:28:19 10° SE visible
29 Sep ? 04:07:48 10° N 04:15:54 62° WNW 04:24:04 10° SSW visible
30 Sep ? 03:08:24 10° NE 03:16:13 47° ESE 03:24:01 10° S visible
30 Sep ? 05:02:28 10° NNW 05:08:33 23° WNW 05:14:41 10° WSW visible
01 Oct ? 02:12:52 10° E 02:16:38 14° ESE 02:20:23 10° SE visible
01 Oct ? 04:00:42 10° N 04:08:54 71° WNW 04:17:09 10° SSW visible
02 Oct ? 03:01:36 10° NE 03:09:12 41° ESE 03:16:48 10° S visible
02 Oct ? 04:55:01 10° NNW 05:01:33 27° WNW 05:08:09 10° SW visible
03 Oct ? 02:07:20 10° E 02:09:40 11° ESE 02:11:59 10° SE visible
03 Oct ? 03:53:38 10° NNE 04:01:53 80° WNW 04:10:11 10° SSW visible
04 Oct ? 02:54:52 10° NE 03:02:13 36° ESE 03:09:32 10° S visible
04 Oct ? 04:47:38 10° NNW 04:54:34 31° WNW 05:01:33 10° SW visible
05 Oct ? 03:46:35 10° NNE 03:54:53 89° WNW 04:03:12 10° SSW visible
